Junction, TX

2:09 AM CST on December 16, 2017 (GMT -0600)
Kimble County

Weather History for KJCT - March, 2013

Change the Weather History Date:

Tuesday, March 5, 2013

  Actual Average Record
Temperature  
Mean Temperature 50 °F -  
Max Temperature 66 °F 65 °F 88 °F (2009)
Min Temperature 35 °F 39 °F 17 °F (2002)
Degree Days  
Heating Degree Days 14    
Moisture  
Dew Point 19 °F    
Average Humidity 29    
Maximum Humidity 56    
Minimum Humidity 6    
Precipitation  
Precipitation 0.00 in - - ()
Sea Level Pressure  
Sea Level Pressure 30.21 in    
Wind  
Wind Speed 13 mph (North)    
Max Wind Speed 25 mph    
Max Gust Speed 37 mph    
Visibility 8 miles    
Events      
Averages and records for this station are not official NWS values.
T = Trace of Precipitation, MM = Missing Value Source: NWS Daily Summary

Daily Weather History Graph

Daily Weather History Graph

Search for Another Location

Airport or City:

Trip Planner

Search our weather history database for the weather conditions in past years. The results will help you decide how hot, cold, wet, or windy it might be!

Date:

Astronomy

Mar. 05, 2013 Rise Set
Actual Time 7:00 AM CST 6:40 PM CST
Civil Twilight 6:36 AM CST 7:04 PM CST
Nautical Twilight 6:08 AM CST 7:32 PM CST
Astronomical Twilight 5:40 AM CST 8:00 PM CST
Moon 1:56 AM CST (3/5) 12:39 PM CST (3/5)
Length of Visible Light 12h 28m
Length of Day
11h 40m
Last Quarter, 40% of the Moon is Illuminated
Mar 5
Last Quarter
Mar 11
New
Mar 19
First Quarter
Mar 27
Full
Apr 2
Last Quarter

Hourly Weather History & Observations

Time (CST) Temp. Windchill Dew Point Humidity Pressure Visibility Wind Dir Wind Speed Gust Speed Precip Events Conditions
12:51 AM 53.1 °F - 19.9 °F 27% 29.74 in 9.0 mi WNW 8.1 mph - N/A   Clear
1:51 AM 54.0 °F - 19.9 °F 26% 29.81 in 9.0 mi NW 9.2 mph - N/A   Clear
2:24 AM 62.6 °F - 39.2 °F 42% 29.97 in 7.0 mi NNE 19.6 mph 36.8 mph N/A   Clear
2:51 AM 55.0 °F - 37.9 °F 53% 29.96 in 7.0 mi NNE 25.3 mph 34.5 mph N/A   Clear
3:51 AM 48.9 °F - 34.0 °F 56% 30.04 in 7.0 mi NNE 21.9 mph 34.5 mph N/A   Clear
4:51 AM 46.9 °F - 32.0 °F 56% 30.09 in 8.0 mi NNE 19.6 mph 29.9 mph N/A   Clear
5:51 AM 46.0 °F 40.6 °F 30.0 °F 54% 30.15 in 9.0 mi NNE 11.5 mph 24.2 mph N/A   Clear
6:51 AM 45.0 °F 37.9 °F 28.9 °F 53% 30.19 in 9.0 mi NNE 16.1 mph 20.7 mph N/A   Clear
7:51 AM 45.0 °F 37.9 °F 27.0 °F 49% 30.23 in 8.0 mi NNE 16.1 mph - N/A   Clear
8:51 AM 46.9 °F - 24.1 °F 41% 30.28 in 8.0 mi NNE 19.6 mph 27.6 mph N/A   Clear
9:51 AM 48.9 °F - 19.9 °F 32% 30.31 in 8.0 mi NE 21.9 mph 31.1 mph N/A   Clear
10:51 AM 53.1 °F - 19.0 °F 26% 30.31 in 8.0 mi North 17.3 mph 24.2 mph N/A   Clear
11:51 AM 55.9 °F - 17.1 °F 22% 30.32 in 8.0 mi North 11.5 mph 23.0 mph N/A   Clear
12:51 PM 57.9 °F - 16.0 °F 19% 30.29 in 9.0 mi North 11.5 mph 20.7 mph N/A   Clear
1:51 PM 60.1 °F - 15.1 °F 17% 30.27 in 9.0 mi North 18.4 mph 24.2 mph N/A   Clear
2:51 PM 62.1 °F - 18.0 °F 18% 30.25 in 8.0 mi NNE 8.1 mph 18.4 mph N/A   Clear
3:51 PM 62.1 °F - 15.1 °F 16% 30.25 in 8.0 mi NNE 10.4 mph - N/A   Clear
4:51 PM 61.0 °F - 10.9 °F 14% 30.25 in 8.0 mi North 9.2 mph - N/A   Clear
5:51 PM 61.0 °F - 10.0 °F 13% 30.25 in 8.0 mi NNE 11.5 mph - N/A   Clear
6:51 PM 55.9 °F - 9.0 °F 15% 30.27 in 8.0 mi NNE 6.9 mph - N/A   Clear
7:51 PM 48.9 °F - 8.1 °F 19% 30.29 in 9.0 mi NNE 6.9 mph - N/A   Clear
8:51 PM 46.9 °F - 7.0 °F 20% 30.31 in 9.0 mi North 5.8 mph - N/A   Clear
9:51 PM 46.0 °F 43.9 °F 6.1 °F 20% 30.32 in 9.0 mi North 4.6 mph - N/A   Clear
10:51 PM 37.9 °F - 10.9 °F 33% 30.35 in 8.0 mi Calm Calm - N/A   Clear
11:51 PM 35.1 °F - 10.9 °F 37% 30.34 in 9.0 mi Calm Calm - N/A   Clear